Hourly Data Report for September 29, 2017

All times are specified in Local Standard Time (LST). Add 1 hour to adjust for Daylight Saving Time where and when it is observed.

EDMUNDSTON
NEW BRUNSWICK

47°25'00.000" N
68°19'28.040" W
154.20 m
8101303
71590
ERM

Download Data

Hourly Data (September 2017)
Hourly Data Report for September 29, 2017
Temp Definition
°C
Dew Point Temp Definition
°C
Rel Hum Definition
%
Wind Dir Definition
10's deg

Wind Spd Definition
km/h
Visibility Definition
km
Stn Press Definition
kPa
Hmdx Definition


Wind Chill Definition


Weather Definition


TIME
00:00 8.0 3.0 71 31 9   99.09     LegendNANA
01:00 8.1 2.9 70 31 9   99.12     LegendNANA
02:00 7.9 2.9 71 30 8   99.16     LegendNANA
03:00 6.9 2.3 72 32 11   99.19     LegendNANA
04:00 5.8 2.7 81 33 6   99.24     LegendNANA
05:00 5.4 1.9 78 31 7   99.28     LegendNANA
06:00 4.7 1.6 80 31 9   99.31     LegendNANA
07:00 3.7 0.8 81 29 4   99.39     LegendNANA
08:00 6.1 1.4 72 33 12   99.43     LegendNANA
09:00 7.6 1.5 65 35 19   99.47     LegendNANA
10:00 7.7 1.6 65 31 10   99.56     LegendNANA
11:00 8.7 0.8 58 34 15   99.59     LegendNANA
12:00 9.0 1.5 60 35 12   99.64     LegendNANA
13:00 9.5 0.8 55 33 13   99.65     LegendNANA
14:00 9.9 0.0 50 34 18   99.66     LegendNANA
15:00 10.1 0.1 50 34 15   99.68     LegendNANA
16:00 9.8 -0.2 50 33 13   99.71     LegendNANA
17:00 9.4 0.0 52 35 12   99.81     LegendNANA
18:00 7.7 -0.4 57 34 8   99.87     LegendNANA
19:00 2.8 0.4 84 34 7   99.96     LegendNANA
20:00 1.8 0.1 88 34 6   100.04     LegendNANA
21:00 0.5 -0.8 91   0   100.09     LegendNANA
22:00 0.4 -0.5 94 32 1   100.15     LegendNANA
23:00 -1.2 -2.2 93 28 2   100.20   -2 LegendNANA

Notes on Data Quality.

Legend

  • E = Estimated
  • M = Missing
  • NA = Not Available
  • ‡ = Partner data that is not subject to review by the National Climate Archives
Date modified: